When you browse on this site, cookies collect data to enhance your experience and personalize the content and advertising you see.
Visit our Privacy Policy to learn more. By continuing to use the site, you agree to this use of cookies and data.
  • En España
  • Lista de países
  • Para 7 días
  • Temperatura del agua
  • Mapa Satelital
  • El tiempo en el mapa
  • Informadores
  • user-avatar
    Iniciar sesión

    Tiempo cada hora Florence

    Hoy, 25 Junio, Martes

    Tiempo Temperatura Precipitaciones Viento Presión Humedad
    00:00 +25°C° 0 mm 1 mps 760 mmHg 60%
    01:00 +25°C° 0 mm 1 mps 760 mmHg 62%
    02:00 +25°C° 0 mm 1 mps 760 mmHg 62%
    03:00 +24°C° 0 mm 1 mps 760 mmHg 61%
    04:00 +24°C° 0 mm 1 mps 759 mmHg 61%
    05:00 +25°C° 0 mm 1 mps 760 mmHg 59%
    06:00 +27°C° 0 mm 1 mps 760 mmHg 58%
    07:00 +28°C° 0 mm 2 mps 761 mmHg 54%
    08:00 +30°C° 0 mm 2 mps 761 mmHg 49%
    09:00 +32°C° 0 mm 2 mps 761 mmHg 44%
    10:00 +34°C° 0 mm 2 mps 761 mmHg 39%
    11:00 +35°C° 0 mm 3 mps 761 mmHg 38%
    12:00 +36°C° 0 mm 3 mps 761 mmHg 36%
    13:00 +37°C° 0 mm 3 mps 761 mmHg 35%
    14:00 +37°C° 0 mm 3 mps 761 mmHg 36%
    15:00 +37°C° 0 mm 3 mps 760 mmHg 38%
    16:00 +37°C° 0 mm 3 mps 760 mmHg 39%
    17:00 +35°C° 0 mm 3 mps 760 mmHg 45%
    18:00 +34°C° 0 mm 3 mps 760 mmHg 52%
    19:00 +31°C° 0 mm 2 mps 761 mmHg 58%
    20:00 +30°C° 0 mm 2 mps 761 mmHg 61%
    21:00 +28°C° 0 mm 2 mps 761 mmHg 65%
    22:00 +27°C° 0 mm 2 mps 761 mmHg 68%
    23:00 +26°C° 0 mm 2 mps 761 mmHg 66%

    Mañana, 26 Junio, Miércoles

    Tiempo Temperatura Precipitaciones Viento Presión Humedad
    00:00 +26°C° 0 mm 2 mps 762 mmHg 65%
    01:00 +25°C° 0 mm 1 mps 762 mmHg 63%
    02:00 +25°C° 0 mm 1 mps 762 mmHg 63%
    03:00 +25°C° 0 mm 1 mps 761 mmHg 62%
    04:00 +25°C° 0 mm 1 mps 761 mmHg 62%
    05:00 +26°C° 0 mm 1 mps 761 mmHg 61%
    06:00 +27°C° 0 mm 1 mps 761 mmHg 60%
    07:00 +28°C° 0 mm 1 mps 762 mmHg 58%
    08:00 +30°C° 0 mm 2 mps 762 mmHg 53%
    09:00 +32°C° 0 mm 2 mps 762 mmHg 47%
    10:00 +36°C° 0 mm 3 mps 762 mmHg 41%
    11:00 +36°C° 0 mm 3 mps 762 mmHg 39%
    12:00 +37°C° 0 mm 4 mps 761 mmHg 37%
    13:00 +38°C° 0 mm 4 mps 761 mmHg 35%
    14:00 +38°C° 0 mm 4 mps 761 mmHg 35%
    15:00 +38°C° 0 mm 4 mps 761 mmHg 35%
    16:00 +37°C° 0 mm 4 mps 760 mmHg 35%
    17:00 +36°C° 0 mm 4 mps 760 mmHg 42%
    18:00 +34°C° 0 mm 3 mps 760 mmHg 48%
    19:00 +32°C° 0 mm 2 mps 760 mmHg 54%
    20:00 +30°C° 0 mm 2 mps 760 mmHg 57%
    21:00 +29°C° 0 mm 2 mps 760 mmHg 61%
    22:00 +27°C° 0 mm 2 mps 761 mmHg 64%
    23:00 +27°C° 0 mm 2 mps 760 mmHg 63%

    Pasado mañana, 27 Junio, Jueves

    Tiempo Temperatura Precipitaciones Viento Presión Humedad
    00:00 +27°C° 0 mm 2 mps 760 mmHg 62%
    01:00 +26°C° 0 mm 1 mps 760 mmHg 61%
    02:00 +26°C° 0 mm 1 mps 760 mmHg 59%
    03:00 +26°C° 0 mm 1 mps 760 mmHg 58%
    04:00 +25°C° 0 mm 1 mps 759 mmHg 57%
    05:00 +27°C° 0 mm 1 mps 759 mmHg 55%
    06:00 +28°C° 0 mm 1 mps 759 mmHg 53%
    07:00 +29°C° 0 mm 1 mps 759 mmHg 51%
    08:00 +32°C° 0 mm 1 mps 759 mmHg 45%
    09:00 +33°C° 0 mm 0 mps 759 mmHg 40%
    10:00 +35°C° 0 mm 0 mps 759 mmHg 34%
    11:00 +39°C° 0 mm 1 mps 759 mmHg 31%
    12:00 +41°C° 0 mm 1 mps 759 mmHg 29%
    13:00 +42°C° 0 mm 1 mps 758 mmHg 26%
    14:00 +42°C° 0 mm 1 mps 758 mmHg 26%
    15:00 +42°C° 0 mm 2 mps 757 mmHg 26%
    16:00 +42°C° 0 mm 2 mps 757 mmHg 26%
    17:00 +40°C° 0 mm 2 mps 757 mmHg 33%
    18:00 +37°C° 0 mm 2 mps 756 mmHg 40%
    19:00 +35°C° 0 mm 2 mps 756 mmHg 47%
    20:00 +32°C° 0 mm 1 mps 756 mmHg 49%
    21:00 +30°C° 0 mm 1 mps 756 mmHg 51%
    22:00 +29°C° 0 mm 1 mps 756 mmHg 54%
    23:00 +26°C° 0 mm 0 mps 756 mmHg 55%

    28 Junio, Viernes

    Tiempo Temperatura Precipitaciones Viento Presión Humedad
    00:00 +26°C° 0 mm 0 mps 755 mmHg 56%
    01:00 +25°C° 0 mm 0 mps 755 mmHg 57%
    02:00 +25°C° 0 mm 0 mps 755 mmHg 58%
    03:00 +24°C° 0 mm 0 mps 755 mmHg 59%
    04:00 +24°C° 0 mm 0 mps 755 mmHg 60%
    05:00 +25°C° 0 mm 0 mps 755 mmHg 60%
    06:00 +29°C° 0 mm 1 mps 755 mmHg 59%
    07:00 +30°C° 0 mm 1 mps 755 mmHg 58%
    08:00 +32°C° 0 mm 1 mps 755 mmHg 53%
    09:00 +34°C° 0 mm 1 mps 755 mmHg 47%
    10:00 +36°C° 0 mm 1 mps 756 mmHg 41%
    11:00 +38°C° 0 mm 2 mps 756 mmHg 40%
    12:00 +39°C° 0 mm 2 mps 756 mmHg 38%
    13:00 +40°C° 0 mm 2 mps 756 mmHg 37%
    14:00 +40°C° 0 mm 3 mps 755 mmHg 39%
    15:00 +39°C° 0 mm 3 mps 755 mmHg 40%
    16:00 +39°C° 0 mm 3 mps 755 mmHg 42%
    17:00 +37°C° 0 mm 2 mps 755 mmHg 48%
    18:00 +36°C° 0 mm 2 mps 755 mmHg 55%
    19:00 +34°C° 0 mm 2 mps 755 mmHg 62%
    20:00 +32°C° 0 mm 2 mps 755 mmHg 66%
    21:00 +30°C° 0 mm 2 mps 756 mmHg 71%
    22:00 +28°C° 0 mm 1 mps 756 mmHg 75%
    23:00 +28°C° 0.1 mm 2 mps 756 mmHg 75%

    29 Junio, Sábado

    Tiempo Temperatura Precipitaciones Viento Presión Humedad
    00:00 +27°C° 0.1 mm 2 mps 756 mmHg 75%
    01:00 +26°C° 0.1 mm 2 mps 756 mmHg 75%
    02:00 +26°C° 0 mm 2 mps 756 mmHg 74%
    03:00 +25°C° 0 mm 2 mps 756 mmHg 72%
    04:00 +25°C° 0 mm 2 mps 756 mmHg 70%
    05:00 +26°C° 0 mm 2 mps 757 mmHg 66%
    06:00 +26°C° 0 mm 2 mps 757 mmHg 62%
    07:00 +27°C° 0 mm 2 mps 757 mmHg 58%
    08:00 +29°C° 0 mm 2 mps 757 mmHg 50%
    09:00 +31°C° 0 mm 3 mps 758 mmHg 42%
    10:00 +34°C° 0 mm 3 mps 758 mmHg 35%
    11:00 +35°C° 0 mm 3 mps 758 mmHg 35%
    12:00 +36°C° 0 mm 4 mps 758 mmHg 35%
    13:00 +36°C° 0 mm 4 mps 758 mmHg 35%
    14:00 +36°C° 0 mm 4 mps 758 mmHg 36%
    15:00 +36°C° 0 mm 4 mps 758 mmHg 38%
    16:00 +35°C° 0 mm 4 mps 757 mmHg 39%
    17:00 +34°C° 0 mm 4 mps 757 mmHg 44%
    18:00 +31°C° 0 mm 3 mps 757 mmHg 48%
    19:00 +30°C° 0 mm 2 mps 757 mmHg 52%
    20:00 +28°C° 0 mm 2 mps 758 mmHg 52%
    21:00 +27°C° 0 mm 2 mps 758 mmHg 51%
    22:00 +26°C° 0 mm 2 mps 758 mmHg 50%
    23:00 +25°C° 0 mm 2 mps 758 mmHg 49%

    30 Junio, Domingo

    Tiempo Temperatura Precipitaciones Viento Presión Humedad
    00:00 +25°C° 0 mm 2 mps 758 mmHg 48%
    01:00 +24°C° 0 mm 2 mps 758 mmHg 47%
    02:00 +24°C° 0 mm 2 mps 758 mmHg 47%
    03:00 +23°C° 0 mm 2 mps 758 mmHg 48%
    04:00 +23°C° 0 mm 2 mps 758 mmHg 49%
    05:00 +24°C° 0 mm 2 mps 758 mmHg 49%
    06:00 +25°C° 0 mm 1 mps 758 mmHg 49%
    07:00 +26°C° 0 mm 1 mps 758 mmHg 49%
    08:00 +28°C° 0 mm 1 mps 759 mmHg 42%
    09:00 +31°C° 0 mm 1 mps 759 mmHg 36%
    10:00 +34°C° 0 mm 1 mps 759 mmHg 30%
    11:00 +35°C° 0 mm 1 mps 759 mmHg 27%
    12:00 +36°C° 0 mm 1 mps 759 mmHg 25%
    13:00 +37°C° 0 mm 1 mps 759 mmHg 23%
    14:00 +37°C° 0 mm 1 mps 758 mmHg 23%
    15:00 +38°C° 0 mm 2 mps 758 mmHg 24%
    16:00 +38°C° 0 mm 2 mps 758 mmHg 25%
    17:00 +36°C° 0 mm 2 mps 758 mmHg 33%
    18:00 +33°C° 0 mm 1 mps 758 mmHg 40%
    19:00 +31°C° 0 mm 1 mps 758 mmHg 47%
    20:00 +30°C° 0 mm 1 mps 758 mmHg 50%
    21:00 +28°C° 0 mm 1 mps 758 mmHg 53%
    22:00 +26°C° 0 mm 1 mps 758 mmHg 55%
    23:00 +24°C° 0 mm 0 mps 758 mmHg 56%
    Mostrar más